[[[{"header":{"parameterUnit":"kt","parameterCategory":2,"dx":1,"dy":1,"la1":30.253999710083008,"la2":30.299108505249023,"lo1":-89.0895004272461,"lo2":-89.04439544677734,"nx":28,"ny":28,"refTime":"2022-10-11T21:00:00:Z","depth":0,"parameterNumber":1,"parameterNumberName":"U-component_of_WINDS"},"data":[-7.48,-7.4991,-7.5047,-7.5293,-7.5386,-7.5563,-7.5645,-7.5758,-7.5861,-7.6083,-7.622,-7.6298,-7.6424,-7.6604,-7.6757,-7.6788,-7.6847,-7.6877,-7.6907,-7.6723,-7.6701,-7.668,-7.6635,-7.6891,-7.6891,-7.7088,-7.709,-7.7091,-7.467,-7.4763,-7.4909,-7.5086,-7.5213,-7.522,-7.5363,-7.5467,-7.5627,-7.5756,-7.5893,-7.6092,-7.6257,-7.6375,-7.6543,-7.6637,-7.6647,-7.6678,-7.6668,-7.6688,-7.6495,-7.6447,-7.6667,-7.6667,-7.6667,-7.6667,-7.6667,-7.6667,-7.4448,-7.4561,-7.4699,-7.4857,-7.4962,-7.5082,-7.5199,-7.5288,-7.5432,-7.561,-7.5649,-7.583,-7.5969,-7.6197,-7.6286,-7.6431,-7.6406,-7.6455,-7.6467,-7.6477,-7.6481,-7.6188,-7.6462,-7.6462,-7.6462,-7.6461,-7.6461,0,-7.4301,-7.4339,-7.4479,-7.4639,-7.4756,-7.4885,-7.5011,-7.5086,-7.5182,-7.5297,-7.5467,-7.5574,-7.5788,-7.5954,-7.6122,-7.6205,-7.6217,-7.6226,-7.626,-7.624,-7.6204,-7.6223,-7.5902,-7.6215,-7.6213,-7.6211,-7.621,-7.621,-7.4077,-7.4201,-7.437,-7.4462,-7.4543,-7.4691,-7.4789,-7.4865,-7.4967,-7.5134,-7.523,-7.5398,-7.5534,-7.5799,-7.5899,-7.6058,-7.6064,-7.6177,-7.6087,-7.6068,-7.6062,-7.6051,-7.6065,-7.619,-7.6192,-7.6194,-7.6196,0,-7.3946,-7.4031,-7.4239,-7.4393,-7.4435,-7.4562,-7.4694,-7.481,-7.4881,-7.505,-7.5094,-7.5206,-7.5371,-7.5453,-7.5657,-7.5695,-7.591,-7.5914,-7.5864,-7.5867,-7.5975,-7.5962,-7.6314,-7.6364,-7.6105,-7.6107,-7.6109,0,-7.3785,-7.3945,-7.4061,-7.4176,-7.4358,-7.4426,-7.4604,-7.4681,-7.4797,-7.4931,-7.4959,-7.5084,-7.5167,-7.5306,-7.5361,-7.5551,-7.559,-7.5628,-7.5639,-7.5622,-7.5617,-7.5671,-7.5656,-7.5664,-7.5662,-7.566,-7.5659,0,-7.3566,-7.3814,-7.4004,-7.4073,-7.4249,-7.4337,-7.4415,-7.4543,-7.4638,-7.4775,-7.4838,-7.4994,-7.5077,-7.5199,-7.5265,-7.5201,-7.5501,-7.5425,-7.5539,-7.5537,-7.5593,-7.5588,-7.5887,-7.5656,-7.5656,-7.5655,-7.5654,0,-7.3444,-7.3579,-7.3842,-7.3988,-7.405,-7.4175,-7.433,-7.4455,-7.4589,-7.463,-7.4738,-7.4762,-7.4934,-7.4855,-7.5093,-7.499,-7.5073,-7.5125,-7.5135,-7.5148,-7.5054,-7.5206,-7.5487,-7.5517,-7.5173,-7.5169,-7.5165,0,-7.317,-7.3455,-7.3511,-7.3759,-7.39,-7.3918,-7.406,-7.4174,-7.424,-7.4372,-7.4446,-7.4593,-7.4551,-7.4607,-7.4716,-7.4796,-7.4931,-7.4781,-7.4968,-7.4974,-7.4928,-7.5189,-7.5206,-7.5418,-7.5115,-7.512,-7.5124,0,-7.2964,-7.3171,-7.321,-7.3291,-7.345,-7.3568,-7.373,-7.389,-7.3974,-7.4099,-7.4236,-7.4447,-7.4423,-7.4514,-7.4548,-7.4657,-7.4842,-7.4614,-7.4618,-7.465,-7.5096,-7.5113,-7.5148,-7.4842,-7.4848,-7.4853,-7.5084,0,-7.2758,-7.2908,-7.302,-7.3192,-7.3295,-7.3453,-7.353,-7.363,-7.3651,-7.3713,-7.3917,-7.4027,-7.4188,-7.4248,-7.4268,-7.4491,-7.4464,-7.4435,-7.4355,-7.4528,-7.4605,-7.4637,-7.4234,-7.4232,-7.4231,-7.423,0,0,-7.2471,-7.2686,-7.2738,-7.2894,-7.2983,-7.2992,-7.3154,-7.3243,-7.3418,-7.348,-7.3439,-7.3748,-7.3837,-7.4075,-7.4135,-7.42,-7.4247,-7.418,-7.4446,-7.447,-7.4492,-7.4574,-7.4606,-7.4227,-7.4226,-7.4226,-7.4225,0,-7.2408,-7.2499,-7.2657,-7.2751,-7.2889,-7.2946,-7.2985,-7.3122,-7.3168,-7.3365,-7.3367,-7.3498,-7.374,-7.3835,-7.3915,-7.4158,-7.4148,-7.4201,-7.4304,-7.4428,-7.4454,-7.4477,-7.4562,-7.4592,-7.4221,-7.4222,-7.4222,0,-7.2216,-7.2317,-7.24,-7.26,-7.269,-7.2833,-7.2772,-7.2924,-7.3032,-7.3029,-7.3222,-7.3293,-7.3425,-7.3638,-7.3737,-7.37,-7.4055,-7.3955,-7.3967,-7.3977,-7.41,-7.4131,-7.4159,-7.3793,-7.3791,-7.379,0,0,-7.2151,-7.2289,-7.2415,-7.2592,-7.2649,-7.2733,-7.2815,-7.2842,-7.2959,-7.3006,-7.3093,-7.3208,-7.335,-7.3441,-7.3578,-7.3802,-7.3833,-7.3899,-7.3919,-7.3936,-7.3954,-7.4081,-7.4112,-7.3783,-7.3783,-7.3782,0,0,-7.2118,-7.2271,-7.2269,-7.2482,-7.2595,-7.2729,-7.2834,-7.2835,-7.2964,-7.2953,-7.3004,-7.3036,-7.3237,-7.3304,-7.3205,-7.355,-7.3471,-7.3496,-7.3496,-7.3523,-7.3543,-7.3519,-7.3151,0,0,0,0,0,-7.2089,-7.2252,-7.2249,-7.2296,-7.2545,-7.2731,-7.2764,-7.2808,-7.2752,-7.2836,-7.291,-7.2894,-7.3262,-7.3175,-7.3221,-7.3328,-7.3695,-7.371,-7.3725,-7.3779,-7.3806,-7.3829,0,0,0,0,0,0,-7.2107,-7.2164,-7.2245,-7.2385,-7.2441,-7.2726,-7.2641,-7.2657,-7.2745,-7.2739,-7.2881,-7.2898,-7.294,-7.3154,-7.3195,-7.3296,-7.3137,-7.3701,-7.3714,-7.3726,-7.3788,-7.381,-7.3829,0,0,0,0,0,-7.2122,-7.2168,-7.2555,-7.2383,-7.2432,-7.2531,-7.2635,-7.2648,-7.2716,-7.2828,-7.2845,-7.2742,-7.2941,-7.2979,-7.3179,-7.3276,-7.3109,-7.3124,-7.3709,-7.372,-7.3729,-7.3799,0,0,0,0,0,0,-7.2134,-7.2182,-7.2566,-7.2583,-7.2322,-7.2516,-7.2548,-7.264,-7.28,-7.2819,-7.269,-7.2684,-7.2945,-7.2973,-7.3002,-7.3267,-7.3087,-7.3102,-7.3111,-7.3717,-7.3726,-7.3733,0,0,0,0,0,0,-7.2158,-7.2196,-7.2575,-7.2496,-7.2504,-7.2502,-7.253,-7.2705,-7.2802,-7.2653,-7.2653,-7.2685,-7.2902,-7.297,-7.2992,-7.3264,-7.3069,-7.3084,-7.3094,-7.31,-7.3724,-7.373,0,0,0,0,0,0,-7.2175,-7.2208,-7.2491,-7.2498,-7.2504,-7.2695,-7.2658,-7.291,-7.2734,-7.2646,-7.272,-7.2713,-7.2899,-7.2922,-7.2986,-7.3248,-7.326,-7.307,-7.308,-7.3087,-7.3091,0,0,0,0,0,0,0,-7.2189,-7.1957,-7.2467,-7.25,-7.2505,-7.2737,-7.2742,-7.2746,-7.2733,-7.2727,-7.2721,-7.2716,-7.2986,-7.3002,-7.3018,-7.3235,0,0,-7.3068,-7.3076,0,0,0,0,0,0,0,0,-7.1944,-7.1954,-7.2468,-7.2471,-7.2474,-7.2738,-7.2742,-7.2745,-7.2732,-7.2727,-7.2722,-7.2718,-7.2991,-7.3004,-7.3017,0,0,0,0,0,0,0,0,0,0,0,0,0,0,0,-7.2468,-7.2471,0,-7.2738,-7.2741,-7.2744,-7.2731,-7.2727,-7.2723,-7.272,-7.2994,-7.3005,-7.3016,0,0,0,0,0,0,0,0,0,0,0,0,0,0,0,0,0,0,0,0,0,0,0,0,0,0,0,0,0,0,0,0,0,0,0,0,0,0,0,0,0,0,0,0,0,0,0,0,0,0,0,0,0,0,0,0,0,0,0,0,0,0,0,0,0,0,0,0,0]}],[{"header":{"parameterUnit":"kt","parameterCategory":2,"dx":1,"dy":1,"la1":30.253999710083008,"la2":30.299108505249023,"lo1":-89.0895004272461,"lo2":-89.04439544677734,"nx":28,"ny":28,"refTime":"2022-10-11T21:00:00:Z","depth":0,"parameterNumber":2,"parameterNumberName":"V-component_of_WINDS"},"data":[2.7104,2.7133,2.7186,2.7243,2.7301,2.7348,2.7382,2.7431,2.7483,2.7545,2.7589,2.7644,2.7715,2.7779,2.7828,2.7851,2.7867,2.784,2.7871,2.7949,2.7963,2.7976,2.7974,2.7843,2.7843,2.7783,2.7783,2.7782,2.7158,2.7216,2.7262,2.7342,2.7381,2.7441,2.7508,2.7537,2.7577,2.7641,2.7687,2.7745,2.7796,2.7878,2.7935,2.7948,2.7978,2.796,2.7959,2.7969,2.8054,2.8051,2.7935,2.7935,2.7935,2.7935,2.7935,2.7935,2.7272,2.7287,2.7367,2.7417,2.7472,2.7525,2.7547,2.7616,2.766,2.7728,2.7781,2.7826,2.7899,2.7993,2.8037,2.8073,2.8101,2.8097,2.8096,2.8093,2.8083,2.8163,2.8085,2.8085,2.8086,2.8086,2.8086,0,2.7371,2.7415,2.7462,2.7525,2.7565,2.7618,2.7676,2.7691,2.78,2.7831,2.7881,2.7918,2.799,2.8041,2.8106,2.8153,2.8214,2.8226,2.8223,2.8197,2.8167,2.8183,2.8319,2.8227,2.8228,2.8229,2.823,2.8231,2.7489,2.75,2.7609,2.7635,2.768,2.7719,2.7754,2.7849,2.7881,2.7964,2.7972,2.8025,2.8072,2.814,2.8216,2.8269,2.8299,2.8258,2.8307,2.8283,2.8298,2.8296,2.8297,2.8246,2.8244,2.8242,2.8241,0,2.755,2.7637,2.7671,2.7778,2.7805,2.7811,2.7901,2.7919,2.7982,2.8015,2.8028,2.8126,2.8172,2.8256,2.8323,2.8365,2.8374,2.8402,2.835,2.836,2.8331,2.8333,2.8226,2.8217,2.8354,2.8352,2.8351,0,2.7684,2.7694,2.7824,2.7839,2.7853,2.7949,2.796,2.8016,2.8081,2.8108,2.8193,2.8216,2.8319,2.8354,2.8415,2.8437,2.845,2.8483,2.8499,2.8475,2.847,2.849,2.8495,2.8535,2.8535,2.8536,2.8536,0,2.777,2.7851,2.7876,2.7908,2.8022,2.8031,2.8078,2.8151,2.8183,2.8237,2.8259,2.8314,2.8344,2.8385,2.8464,2.8494,2.8493,2.855,2.8526,2.8524,2.852,2.8519,2.8405,2.8537,2.8537,2.8537,2.8537,0,2.7891,2.7947,2.797,2.8067,2.8084,2.81,2.8163,2.8196,2.8266,2.8307,2.835,2.8416,2.8443,2.8494,2.8531,2.8548,2.8572,2.8607,2.8606,2.8612,2.8666,2.859,2.8475,2.8466,2.862,2.8621,2.8621,0,2.7966,2.8012,2.8096,2.8114,2.8148,2.8243,2.8262,2.8322,2.8378,2.8413,2.8475,2.8512,2.8568,2.8591,2.8599,2.8663,2.8641,2.8669,2.8714,2.8715,2.8693,2.8588,2.855,2.8491,2.8631,2.863,2.863,0,2.8034,2.8174,2.8171,2.8212,2.8308,2.8335,2.8357,2.8417,2.8436,2.8493,2.8513,2.8567,2.8612,2.8649,2.8707,2.871,2.8659,2.8757,2.876,2.8736,2.8643,2.8607,2.8597,2.8697,2.8696,2.8695,2.8637,0,2.8198,2.8232,2.8229,2.8315,2.835,2.8366,2.8457,2.8481,2.8536,2.8595,2.8624,2.8693,2.8751,2.8761,2.8813,2.8795,2.881,2.8856,2.891,2.8841,2.8824,2.8817,2.8928,2.893,2.8932,2.8934,0,0,2.8247,2.8298,2.8388,2.8413,2.8448,2.8546,2.8554,2.8599,2.8685,2.8706,2.8738,2.8824,2.8877,2.8903,2.8888,2.8911,2.8916,2.8935,2.8873,2.8866,2.886,2.884,2.8832,2.8937,2.8937,2.8938,2.8939,0,2.8325,2.8383,2.8392,2.8443,2.8522,2.8585,2.8586,2.8681,2.8718,2.8748,2.8826,2.8853,2.8918,2.8965,2.8997,2.8936,2.8991,2.8946,2.8884,2.8888,2.8879,2.8871,2.8849,2.884,2.8943,2.8943,2.8943,0,2.8409,2.848,2.8494,2.8579,2.8631,2.8661,2.8742,2.877,2.8793,2.8894,2.8921,2.8971,2.904,2.9052,2.9061,2.9089,2.9054,2.908,2.9071,2.9073,2.9081,2.907,2.9059,2.9194,2.9195,2.9195,0,0,2.8464,2.8496,2.8601,2.8602,2.863,2.8723,2.8747,2.8804,2.8867,2.8891,2.8955,2.9011,2.9051,2.9074,2.9114,2.9115,2.9136,2.9107,2.9096,2.9086,2.9082,2.9087,2.9076,2.9197,2.9197,2.9197,0,0,2.8489,2.8612,2.8657,2.867,2.8728,2.8829,2.8826,2.8882,2.8928,2.8936,2.903,2.9049,2.9062,2.9106,2.9123,2.9135,2.9187,2.9184,2.9105,2.9091,2.908,2.9068,2.9212,0,0,0,0,0,2.8617,2.8598,2.8637,2.8653,2.8758,2.8808,2.8822,2.8901,2.8937,2.8933,2.8996,2.9053,2.9135,2.9152,2.9165,2.9145,2.9222,2.9218,2.9214,2.9112,2.9097,2.9084,0,0,0,0,0,0,2.8624,2.8643,2.8638,2.8737,2.8761,2.8809,2.8888,2.8909,2.894,2.8951,2.904,2.9056,2.9123,2.9151,2.9161,2.914,2.9209,2.9221,2.9217,2.9213,2.9107,2.9094,2.9083,0,0,0,0,0,2.8629,2.8645,2.8793,2.8738,2.8759,2.886,2.889,2.8908,2.8933,2.9029,2.9048,2.899,2.912,2.9134,2.9157,2.9134,2.9202,2.9206,2.9218,2.9215,2.9212,2.9101,0,0,0,0,0,0,2.8634,2.8661,2.8799,2.8808,2.8751,2.8859,2.8879,2.8906,2.9011,2.9029,2.8984,2.8991,2.9118,2.9129,2.9139,2.9127,2.9197,2.92,2.9203,2.9216,2.9213,2.9211,0,0,0,0,0,0,2.8654,2.8668,2.8804,2.8816,2.8828,2.8858,2.8875,2.8905,2.9011,2.896,2.8969,2.8986,2.9101,2.9125,2.9134,2.9178,2.9193,2.9196,2.9199,2.92,2.9214,2.9212,0,0,0,0,0,0,2.8661,2.8674,2.8814,2.8823,2.8833,2.8944,2.8886,2.8988,2.9024,2.8953,2.9029,2.9032,2.9096,2.9106,2.913,2.917,2.9176,2.9193,2.9195,2.9197,2.9198,0,0,0,0,0,0,0,2.8667,2.8563,2.8744,2.8829,2.8838,2.8895,2.8897,2.89,2.9025,2.9027,2.9029,2.9031,2.9173,2.9177,2.9181,2.9163,0,0,2.9192,2.9194,0,0,0,0,0,0,0,0,2.8559,2.8562,2.8744,2.8746,2.8748,2.8895,2.8897,2.8899,2.9025,2.9027,2.9028,2.903,2.9174,2.9177,2.918,0,0,0,0,0,0,0,0,0,0,0,0,0,0,0,2.8744,2.8746,0,2.8895,2.8897,2.8899,2.9025,2.9027,2.9028,2.9029,2.9175,2.9177,2.918,0,0,0,0,0,0,0,0,0,0,0,0,0,0,0,0,0,0,0,0,0,0,0,0,0,0,0,0,0,0,0,0,0,0,0,0,0,0,0,0,0,0,0,0,0,0,0,0,0,0,0,0,0,0,0,0,0,0,0,0,0,0,0,0,0,0,0,0,0]}]]]